Total_Precipitation_Accumulation
0.28 0.38 0.42 0.33 0.31 0.34 0.38 0.46 0.55 0.46 0.25 0.08 0.05 0.03 0.04 0.06 0.08 0.13 0.10 0.10 0.11 0.11 0.11 0.12 0.16 0.20 0.24 0.25 0.20 0.20 0.24 0.31 0.38 0.38 0.27 0.12 0.05 0.04
0.15 0.27 0.35 0.30 0.25 0.30 0.36 0.38 0.46 0.55 0.42 0.11 0.06 0.05 0.11 0.16 0.13 0.12 0.06 0.13 0.09 0.08 0.06 0.05 0.07 0.11 0.11 0.13 0.15 0.15 0.15 0.16 0.21 0.28 0.29 0.20 0.14 0.10
0.13 0.18 0.25 0.29 0.36 0.28 0.28 0.32 0.32 0.33 0.38 0.17 0.13 0.15 0.13 0.13 0.14 0.18 0.19 0.16 0.09 0.07 0.09 0.08 0.09 0.10 0.10 0.08 0.06 0.05 0.06 0.08 0.07 0.09 0.19 0.30 0.29 0.20
0.07 0.13 0.25 0.29 0.34 0.33 0.37 0.34 0.32 0.23 0.21 0.15 0.09 0.23 0.29 0.25 0.20 0.17 0.16 0.16 0.13 0.12 0.13 0.12 0.10 0.11 0.11 0.09 0.07 0.05 0.04 0.03 0.02 0.01 0.02 0.05 0.11 0.19
0.09 0.07 0.08 0.18 0.33 0.32 0.27 0.28 0.30 0.28 0.30 0.24 0.13 0.17 0.20 0.18 0.27 0.29 0.23 0.27 0.23 0.16 0.14 0.15 0.15 0.14 0.12 0.09 0.07 0.04 0.04 0.03 0.02 0.01 0.01 0.01 0.01 0.02
0.13 0.12 0.07 0.06 0.10 0.16 0.24 0.21 0.20 0.32 0.37 0.38 0.30 0.20 0.25 0.22 0.25 0.28 0.28 0.21 0.25 0.28 0.29 0.22 0.19 0.14 0.10 0.08 0.06 0.03 0.04 0.04 0.03 0.02 0.01 0.01 0.00 0.00
0.14 0.14 0.13 0.10 0.09 0.12 0.21 0.24 0.24 0.28 0.40 0.53 0.50 0.39 0.28 0.22 0.32 0.32 0.22 0.15 0.13 0.18 0.31 0.34 0.32 0.29 0.20 0.15 0.11 0.07 0.03 0.02 0.03 0.02 0.02 0.01 0.01 0.01
0.24 0.14 0.13 0.14 0.09 0.11 0.11 0.13 0.19 0.28 0.32 0.29 0.32 0.43 0.31 0.14 0.11 0.15 0.28 0.39 0.37 0.18 0.20 0.29 0.40 0.48 0.32 0.23 0.19 0.16 0.10 0.04 0.03 0.02 0.02 0.02 0.01 0.02
0.22 0.20 0.17 0.10 0.11 0.10 0.16 0.16 0.11 0.12 0.15 0.20 0.25 0.18 0.16 0.15 0.18 0.23 0.32 0.42 0.40 0.23 0.28 0.26 0.25 0.42 0.32 0.32 0.31 0.20 0.15 0.08 0.03 0.02 0.02 0.02 0.03 0.02
0.15 0.14 0.11 0.13 0.09 0.07 0.11 0.29 0.31 0.16 0.10 0.06 0.04 0.03 0.04 0.06 0.12 0.29 0.34 0.40 0.44 0.45 0.42 0.55 0.34 0.26 0.18 0.20 0.23 0.21 0.18 0.15 0.08 0.02 0.01 0.01 0.02 0.04
0.05 0.04 0.10 0.09 0.09 0.12 0.13 0.23 0.27 0.24 0.16 0.16 0.11 0.09 0.09 0.14 0.17 0.26 0.54 0.69 0.74 0.62 0.52 0.43 0.28 0.18 0.13 0.16 0.15 0.14 0.10 0.12 0.11 0.06 0.04 0.03 0.04 0.06
0.24 0.07 0.05 0.05 0.11 0.10 0.13 0.23 0.32 0.20 0.13 0.16 0.20 0.20 0.19 0.15 0.21 0.28 0.26 0.40 0.41 0.41 0.33 0.35 0.24 0.24 0.33 0.19 0.11 0.13 0.13 0.10 0.07 0.06 0.05 0.04 0.07 0.13
0.47 0.33 0.15 0.05 0.05 0.07 0.10 0.10 0.15 0.09 0.13 0.20 0.22 0.28 0.34 0.31 0.24 0.20 0.17 0.17 0.21 0.26 0.17 0.24 0.28 0.37 0.39 0.30 0.20 0.21 0.22 0.23 0.21 0.12 0.05 0.05 0.05 0.07
0.36 0.41 0.19 0.11 0.07 0.08 0.11 0.15 0.18 0.24 0.28 0.38 0.50 0.55 0.53 0.44 0.29 0.17 0.13 0.11 0.10 0.09 0.11 0.24 0.41 0.37 0.42 0.40 0.32 0.26 0.33 0.28 0.25 0.30 0.24 0.13 0.07 0.05
0.16 0.30 0.41 0.21 0.14 0.11 0.07 0.09 0.13 0.18 0.32 0.45 0.40 0.30 0.26 0.22 0.20 0.28 0.35 0.35 0.33 0.24 0.21 0.23 0.30 0.36 0.45 0.48 0.37 0.29 0.39 0.47 0.39 0.31 0.30 0.31 0.17 0.06
0.17 0.27 0.35 0.44 0.28 0.14 0.11 0.10 0.09 0.14 0.13 0.18 0.24 0.17 0.21 0.28 0.31 0.33 0.44 0.50 0.53 0.47 0.39 0.35 0.30 0.27 0.36 0.41 0.39 0.36 0.33 0.41 0.45 0.44 0.37 0.36 0.35 0.29
0.37 0.40 0.24 0.27 0.53 0.55 0.34 0.22 0.19 0.21 0.24 0.10 0.08 0.15 0.17 0.23 0.34 0.37 0.39 0.45 0.54 0.49 0.44 0.47 0.53 0.48 0.41 0.34 0.40 0.41 0.38 0.38 0.34 0.42 0.54 0.59 0.47 0.40
0.47 0.42 0.37 0.24 0.33 0.49 0.62 0.61 0.47 0.40 0.21 0.17 0.09 0.06 0.13 0.16 0.17 0.21 0.32 0.42 0.44 0.37 0.35 0.39 0.48 0.62 0.79 0.74 0.62 0.39 0.38 0.45 0.47 0.49 0.62 0.66 0.54 0.38
0.54 0.43 0.56 0.52 0.30 0.40 0.49 0.59 0.64 0.56 0.40 0.30 0.27 0.15 0.09 0.14 0.25 0.19 0.22 0.25 0.30 0.33 0.34 0.34 0.37 0.44 0.54 0.53 0.43 0.40 0.27 0.26 0.36 0.62 0.73 0.72 0.60 0.40
0.55 0.71 0.63 0.81 0.69 0.40 0.56 0.58 0.59 0.62 0.67 0.70 0.60 0.44 0.29 0.25 0.24 0.22 0.18 0.19 0.20 0.22 0.30 0.36 0.37 0.37 0.38 0.28 0.23 0.31 0.47 0.32 0.31 0.41 0.59 0.74 0.77 0.80
0.79 0.81 0.74 0.82 1.07 0.86 0.65 0.75 0.68 0.68 0.60 0.65 0.76 0.78 0.70 0.48 0.45 0.35 0.35 0.41 0.33 0.25 0.29 0.35 0.36 0.41 0.29 0.35 0.57 0.59 0.62 0.68 0.56 0.46 0.48 0.63 0.80 0.69
1.00 1.01 0.96 0.86 0.98 1.16 0.96 0.94 0.97 0.78 0.73 0.64 0.58 0.65 0.74 0.79 0.72 0.68 0.53 0.50 0.46 0.37 0.37 0.35 0.41 0.51 0.53 0.52 0.53 0.48 0.49 0.56 0.76 0.88 0.89 0.84 0.73 0.62
1.15 1.17 1.15 1.01 0.92 1.08 1.16 0.92 1.11 1.03 0.81 0.72 0.71 0.64 0.64 0.75 0.75 0.77 0.84 0.74 0.65 0.57 0.54 0.57 0.54 0.58 0.66 0.71 0.63 0.49 0.45 0.54 0.66 0.75 0.88 0.88 0.64 0.46